Regional Weather Roundup
Issued by NWS

Home | Current Version | Previous Version | Text Only | Print | Product List | Glossary Off
Versions: 1 2 3 4 5 6 7 8 9 10 11 12 13 14 15 16 17 18 19 20 21 22 23 24 25 26 27

000
ASUS45 KTFX 241310
RWRMT
MONTANA REGIONAL WEATHER ROUNDUP
NATIONAL WEATHER SERVICE GREAT FALLS MT
700 AM MDT FRI MAR 24 2017

NOTE: "FAIR" INDICATES FEW OR NO CLOUDS BELOW 12000 FEET WITH NO
SIGNIFICANT WEATHER AND/OR OBSTRUCTIONS TO VISIBILITY.

MTZ001>007-043-241400-
WEST OF THE DIVIDE

CITY           SKY/WX    TMP DP  RH WIND       PRES   REMARKS
KALISPELL      PTCLDY    24  22  91 CALM      29.99F
MISSOULA       MOCLDY    26  23  88 CALM      30.04F
BUTTE          CLOUDY    22  18  85 SE3       30.04S
MULLAN PASS    CLOUDY    25  21  85 S9        29.90S WCI  15
ANACONDA         N/A     28  18  64 S3        30.02F
DEER LODGE       N/A     21  19  93 E3        30.05S
EUREKA           N/A     27  21  80 CALM      29.99F
HAMILTON         N/A     30  23  74 CALM      30.02F
$$

MTZ008-052>055-241400-
SOUTHWEST MONTANA

CITY           SKY/WX    TMP DP  RH WIND       PRES   REMARKS
BOZEMAN        CLEAR     28  22  78 S5        30.06R
DILLON         CLOUDY    28  20  71 S12       30.05R WCI  18
W YELLOWSTONE  CLOUDY    19  18  93 NE3       30.16R
ENNIS          CLEAR     30  25  80 S16G22    30.10R WCI  19
THREE FORKS      N/A     22  18  85 CALM      30.04R
$$

MTZ009-010-012-014-046-048-049-054-241400-
EAST SLOPES AND CENTRAL MONTANA

CITY           SKY/WX    TMP DP  RH WIND       PRES   REMARKS
CUT BANK       CLEAR     26  19  74 SE5       29.96F
GREAT FALLS    CLOUDY    28  18  66 S6        29.98F WCI  22
MALMSTROM AFB  CLOUDY    24  18  79 E3        30.00S
HELENA         CLOUDY    28  22  78 CALM      30.04S
AUGUSTA          N/A     29  19  64 CALM      29.96F
BOWMANS CRNR     N/A     30  21  69 S10       29.96S WCI  21
CHOTEAU          N/A     28  18  64 MISG      29.98F
CONRAD           N/A     20  19  96 S3        29.99F
FAIRFIELD        N/A     29  19  64 CALM      29.97F
POWER            N/A     20  13  76 CALM      29.98S
RAYNESFORD       N/A     26  18  73 CALM      30.01R
$$

MTZ011-013-016-021-045-047-050-051-241400-
NORTH CENTRAL MONTANA

CITY           SKY/WX    TMP DP  RH WIND       PRES   REMARKS
HAVRE          CLEAR     27  22  81 NW3       30.02R
LEWISTOWN      CLEAR     26  19  74 SE8       30.03F WCI  18
N BAR RANCH      N/A     30  21  69 NW6       30.08R WCI  24
CHINOOK          N/A     27  23  86 CALM      30.04S
DENTON           N/A     24  20  82 S10       30.00S WCI  14
FORT BENTON      N/A     25  19  80 MISG      30.04R
GEYSER           N/A     30  18  62 SE6       30.00S WCI  24
GRASS RANGE      N/A     29  21  71 W5        30.01S
STANFORD         N/A     29  19  65 S6        30.01S WCI  23
WINIFRED         N/A     35  21  55 S6        30.02F WCI  30
$$

MTZ017>020-022>027-061-062-241400-
NORTHEAST MONTANA

CITY           SKY/WX    TMP DP  RH WIND       PRES   REMARKS
GLASGOW        CLEAR     30  26  85 SE9       30.05R WCI  22
JORDAN           N/A     25  22  88 CALM      30.05S
SIDNEY         CLEAR     26  25  96 N5        30.09R FOG
WOLF POINT     CLEAR     30  27  88 NE8       30.07R FOG     WCI  22
MALTA          CLEAR     27  27 100 CALM      30.06R
PLENTYWOOD       N/A     28  28 100 CALM      30.08S VSB 0
POPLAR           N/A     28  27  93 CALM      30.09R VSB 3/4
$$

MTZ028>42-056>058-241400-
SOUTHCENTRAL AND SOUTHEAST MONTANA

CITY           SKY/WX    TMP DP  RH WIND       PRES   REMARKS
BAKER          CLEAR     30  27  88 CALM      30.07R
BILLINGS       PTCLDY    35  30  82 SW13      30.07R WCI  26
LIVINGSTON     CLEAR     24  18  77 NW8       30.06R WCI  15
MILES CITY     CLEAR     32  28  85 CALM      30.08R
BIG TIMBER     CLEAR     27  21  80 SW6       30.08S WCI  20
FORSYTH          N/A     34  34 100 S3        30.09R
HARLOWTON        N/A     28  20  73 NW12      30.05S WCI  17
LAUREL           N/A     29  18  63 W2        30.04F
$$

REGIONAL REPORTS...DAKOTAS

CITY           SKY/WX    TMP DP  RH WIND       PRES   REMARKS
WILLISTON      PTCLDY    24  23  96 CALM      30.09R FOG
MINOT          CLEAR     25  23  92 N6        30.12R WCI  18
DICKINSON      FOG       22  20  92 CALM      30.05R VSB 1/4
BEACH            N/A    N/A N/A N/A MISG        N/A
TIOGA            N/A     25  25 100 NE3       30.11R
WATFORD CITY     N/A     27  27 100 CALM      30.09R FOG
BISMARCK       CLEAR     28  26  92 CALM      30.09R
GRAND FORKS    PTCLDY    30  27  88 N14       30.11R WCI  19
FARGO          CLOUDY    35  33  92 N12       30.07R FOG     WCI  27
BUFFALO SD       N/A     37  34  89 W6        29.99R
RAPID CITY     CLOUDY    41  37  86 NW6       30.05R
$$

REGIONAL REPORTS...WYOMING/IDAHO/WASHINGTON

CITY           SKY/WX    TMP DP  RH WIND       PRES   REMARKS
GILLETTE       CLEAR     33  31  92 W3        30.10R
SHERIDAN       CLEAR     31  26  82 CALM      30.09R
BUFFALO WY     CLEAR     38  27  64 W6        30.11R
CODY           CLEAR     36  27  69 SW10      30.10S WCI  28
YELLOWSTONE LA   N/A     14  12  92 CALM      30.16S
IDAHO FALLS    CLEAR     31  25  78 N5        30.15R
SALMON         CLOUDY    25  19  80 CALM      30.06F
BOISE          MOCLDY    45  26  47 SE16      30.02R
SPOKANE        LGT RAIN  38  31  76 E6        29.91F
$$

REGIONAL REPORTS...ALBERTA

CITY           SKY/WX    TMP DP  RH WIND       PRES   REMARKS
EDMONTON       CLEAR     21  18  86 E2        29.91F
CALGARY        MOCLDY    27  23  86 S7        29.87F WCI  19
LETHBRIDGE     PTCLDY    21  18  86 SW3       29.94F
MEDICINE HAT   FOG       30  28  93 SW8       29.98F VSB 1   WCI  23
WATERTON GATE    N/A     36  19  51 SW14G21     N/A  WCI  27
CARDSTON         N/A     23  18  80 S3          N/A
MILK RIVER       N/A     23  19  86 SW1         N/A
ONEFOUR          N/A     27  19  74 NE5         N/A
$$

REGIONAL REPORTS...SASKATCHEWAN

CITY           SKY/WX    TMP DP  RH WIND       PRES   REMARKS
SWIFT CURRENT  CLEAR     25  25 100 E9        30.02R WCI  15
REGINA         CLEAR     23  21  93 SE7       30.12R WCI  15
SASKATOON      MOCLDY    21  19  93 NE5       30.13R
VAL MARIE        N/A     23  21  93 NW1         N/A
ROCKGLEN         N/A     28  27  93 S12         N/A  WCI  18
ASSINIBOIA       N/A     14  12  92 SE3         N/A
$$




USA.gov is the U.S. government's official web portal to all federal, state and local government web resources and services.